Flag for Germany Weather past 2 weeks in Langenhagen, Lower Saxony, Germany

Now
64 °F

Scattered clouds.


Feels Like: 64 °F
Forecast: 49 / 55 °F
Wind: 6 mph from Northwest

Location: Hannover

Current Time: May 24, 2015 at 3:46:04 PM

Latest Report: May 24, 2015 at 3:20 PM


Visibility: N/A

Pressure: 30.07 "Hg

Humidity: 52%

Dew point: 46 °F

Location of LangenhagenLocation

Historic Weather in Langenhagen — Graph

°F

Langenhagen temperature yesterday

Maximum temperature yesterday: 64 °F (at 11:20 AM)
Minimum temperature yesterday: 46 °F (at 11:50 PM)
Average temperature yesterday: 56 °F

Past Weeks' High & Low Weather Summary

 TemperatureHumidityPressure
High77 °F (May 12, 12:50 PM)100% (May 15, 12:50 AM)30.33 "Hg (May 15, 12:50 AM)
Low34 °F (May 15, 4:50 AM)41% (May 11, 5:50 PM)29.59 "Hg (May 18, 8:50 PM)
Average54 °F70%30.06 "Hg
* Reported May 9 2:20 PM — May 24 2:50 PM, Langenhagen, Weather by CustomWeather, © 2015

Note: Actual official high and low records may vary slightly from our data, if they occured in-between our weather recording intervals... More about our weather records

Advertising

Langenhagen weather history for previous 24 hours

 ConditionsComfort  
Time TempWeatherWind HumidityBarometerVisibility
2:50 PM
Sun, May 24
64 °FScattered clouds.5 mph52%30.09 "HgN/A
2:20 PM64 °FScattered clouds.7 mph56%30.09 "HgN/A
1:50 PM63 °FScattered clouds.5 mph59%30.09 "HgN/A
1:20 PM63 °FScattered clouds.5 mph59%30.09 "HgN/A
12:50 PM61 °FPartly sunny.5 mph63%30.09 "HgN/A
12:20 PM61 °FScattered clouds.5 mph55%30.12 "HgN/A
11:50 AM59 °FPassing clouds.5 mph63%30.12 "HgN/A
11:20 AM57 °FPassing clouds.5 mph67%30.12 "HgN/A
10:50 AM57 °FPassing clouds.1 mph67%30.12 "HgN/A
10:20 AM55 °FPassing clouds.3 mph72%30.15 "HgN/A
9:50 AM54 °FSunny.3 mph72%30.15 "Hg10 mi
9:20 AM52 °FSunny.2 mph77%30.15 "Hg10 mi
8:50 AM50 °FSunny.2 mph76%30.15 "Hg10 mi
8:20 AM48 °FSunny.1 mph82%30.15 "Hg10 mi
7:50 AM46 °FSunny.2 mph87%30.15 "Hg10 mi
7:20 AM43 °FSunny.3 mph93%30.15 "Hg10 mi
6:50 AM41 °FFog.2 mph100%30.15 "HgN/A
6:20 AM37 °FFog.2 mph100%30.15 "HgN/A
5:50 AM37 °FFog.3 mph93%30.15 "HgN/A
5:20 AM37 °FFog.3 mph100%30.15 "HgN/A
4:50 AM39 °FFog.3 mph93%30.15 "HgN/A
4:20 AM39 °FClear.2 mph100%30.15 "Hg10 mi
3:50 AM39 °FClear.3 mph93%30.15 "Hg10 mi
3:20 AM39 °FClear.3 mph93%30.15 "Hg10 mi
2:50 AM41 °FClear.3 mph93%30.15 "Hg10 mi
2:20 AM41 °FClear.3 mph93%30.15 "Hg10 mi
1:50 AM41 °FClear.3 mph93%30.18 "Hg10 mi
1:20 AM43 °FPassing clouds.3 mph87%30.18 "HgN/A
12:50 AM43 °FClear.3 mph93%30.18 "Hg10 mi
12:20 AM45 °FClear.3 mph87%30.18 "Hg10 mi
11:50 PM
Sat, May 23
46 °FClear.6 mph82%30.15 "Hg10 mi
11:20 PM48 °FClear.6 mph76%30.15 "Hg10 mi
10:50 PM50 °FClear.8 mph71%30.15 "Hg10 mi
10:20 PM50 °FSunny.9 mph71%30.15 "Hg10 mi
9:50 PM52 °FSunny.9 mph72%30.15 "Hg10 mi
9:20 PM54 °FSunny.9 mph67%30.12 "Hg10 mi
8:50 PM55 °FSunny.7 mph63%30.12 "Hg10 mi
8:20 PM57 °FPartly sunny.7 mph63%30.12 "HgN/A
7:50 PM59 °FPartly sunny.5 mph59%30.12 "HgN/A
7:20 PM59 °FPartly sunny.5 mph68%30.12 "HgN/A
6:50 PM57 °FPartly sunny.5 mph77%30.12 "HgN/A
6:20 PM59 °FBroken clouds.6 mph68%30.12 "HgN/A
5:50 PM59 °FBroken clouds.5 mph72%30.12 "HgN/A
5:20 PM57 °FBroken clouds.9 mph77%30.12 "HgN/A
4:50 PM57 °FPartly sunny.7 mph77%30.12 "HgN/A
4:20 PM55 °FMostly cloudy.8 mph82%30.12 "HgN/A
3:50 PM55 °FMostly cloudy.12 mph82%30.12 "HgN/A
3:20 PM55 °FMostly cloudy.12 mph82%30.12 "HgN/A
Weather by CustomWeather, © 2015

See weather overviewHow to use our weather pages